Saint Simons Island, GA

9:43 AM EST on December 08, 2016 (GMT -0500)
McKinnon

Weather History for KSSI - October, 2012

Change the Weather History Date:

Saturday, October 13, 2012

  Actual Average Record
Temperature  
Mean Temperature 77 °F 71 °F  
Max Temperature 81 °F 79 °F 87 °F (1982)
Min Temperature 73 °F 64 °F 48 °F (1977)
Degree Days  
Heating Degree Days 0 1  
Month to date heating degree days 3 3  
Since 1 July heating degree days 3 3  
Cooling Degree Days 12 7  
Month to date cooling degree days 132 107  
Year to date cooling degree days 2792 2478  
Growing Degree Days 26 (Base 50)    
Moisture  
Dew Point 65 °F    
Average Humidity 65    
Maximum Humidity 79    
Minimum Humidity 51    
Precipitation  
Precipitation T in 0.16 in 0.55 in (1978)
Month to date precipitation 2.67 2.32  
Year to date precipitation 38.82 38.19  
Snow  
Snow 0.00 in - 0.00 in ()
Month to date snowfall 0.0  
Since 1 July snowfall 0.0  
Since 1 September snowfall 0.0  
Snow Depth 0.00 in    
Sea Level Pressure  
Sea Level Pressure 30.23 in    
Wind  
Wind Speed 14 mph (NE)    
Max Wind Speed 23 mph    
Max Gust Speed 31 mph    
Visibility 10 miles    
Events Rain    
T = Trace of Precipitation, MM = Missing Value Source: NWS Daily Summary

Daily Weather History Graph

Daily Weather History Graph

Search for Another Location

Airport or City:

Trip Planner

Search our weather history database for the weather conditions in past years. The results will help you decide how hot, cold, wet, or windy it might be!

Date:

Astronomy

Oct. 13, 2012 Rise Set
Actual Time 7:27 AM EDT 6:55 PM EDT
Civil Twilight 7:02 AM EDT 7:19 PM EDT
Nautical Twilight 6:34 AM EDT 7:47 PM EDT
Astronomical Twilight 6:06 AM EDT 8:16 PM EDT
Moon 5:21 AM EDT (10/13) 5:34 PM EDT (10/13)
Length of Visible Light 12h 16m
Length of Day
11h 28m
Waning Crescent, 5% of the Moon is Illuminated
Oct 13
Waning Crescent
Oct 15
New
Oct 21
First Quarter
Oct 29
Full
Nov 6
Last Quarter

Hourly Weather History & Observations

Time (EDT) Temp. Heat Index Dew Point Humidity Pressure Visibility Wind Dir Wind Speed Gust Speed Precip Events Conditions
12:53 AM 73.0 °F - 62.1 °F 68% 30.22 in 10.0 mi East 6.9 mph - N/A   Clear
1:53 AM 73.0 °F - 62.1 °F 68% 30.20 in 10.0 mi East 6.9 mph - N/A   Clear
2:53 AM 73.9 °F - 63.0 °F 68% 30.20 in 10.0 mi ENE 9.2 mph - N/A   Partly Cloudy
3:53 AM 73.0 °F - 61.0 °F 66% 30.19 in 10.0 mi NE 8.1 mph - N/A   Clear
4:53 AM 73.0 °F - 61.0 °F 66% 30.20 in 10.0 mi ENE 9.2 mph - N/A   Mostly Cloudy
5:53 AM 73.9 °F - 60.1 °F 62% 30.22 in 10.0 mi ENE 11.5 mph - N/A   Partly Cloudy
6:53 AM 73.9 °F - 61.0 °F 64% 30.24 in 10.0 mi NE 13.8 mph - N/A   Scattered Clouds
7:53 AM 73.9 °F - 60.1 °F 62% 30.25 in 10.0 mi NE 15.0 mph 19.6 mph N/A   Partly Cloudy
8:53 AM 75.0 °F - 60.1 °F 60% 30.27 in 10.0 mi ENE 12.7 mph - N/A   Partly Cloudy
9:53 AM 78.1 °F - 61.0 °F 56% 30.27 in 10.0 mi ENE 12.7 mph 20.7 mph N/A   Scattered Clouds
10:53 AM 80.1 °F 81.1 °F 61.0 °F 52% 30.29 in 10.0 mi ENE 15.0 mph 20.7 mph N/A   Scattered Clouds
11:53 AM 80.1 °F 81.2 °F 62.1 °F 54% 30.29 in 10.0 mi NE 13.8 mph 21.9 mph N/A   Partly Cloudy
12:53 PM 80.1 °F 82.1 °F 66.0 °F 62% 30.27 in 10.0 mi NNE 12.7 mph 20.7 mph N/A   Clear
1:53 PM 75.0 °F - 68.0 °F 79% 30.26 in 8.0 mi NNE 12.7 mph 23.0 mph 0.00 in Rain Light Rain
2:04 PM 75.2 °F - 68.0 °F 78% 30.25 in 10.0 mi North 8.1 mph - 0.00 in   Overcast
2:51 PM 77.0 °F - 66.2 °F 69% 30.23 in 10.0 mi NE 18.4 mph 26.5 mph 0.00 in   Overcast
2:53 PM 77.0 °F - 66.0 °F 69% 30.23 in 10.0 mi NE 19.6 mph 26.5 mph 0.00 in   Overcast
3:53 PM 78.8 °F - 68.0 °F 69% 30.21 in 10.0 mi NNE 18.4 mph 28.8 mph N/A   Overcast
4:18 PM 77.0 °F - 68.0 °F 74% 30.21 in 10.0 mi NNE 16.1 mph 26.5 mph N/A   Overcast
4:38 PM 77.0 °F - 66.2 °F 69% 30.21 in 10.0 mi NE 19.6 mph 29.9 mph N/A   Overcast
4:53 PM 77.0 °F - 66.9 °F 71% 30.21 in 10.0 mi NNE 20.7 mph 31.1 mph N/A   Overcast
5:53 PM 77.0 °F - 66.0 °F 69% 30.22 in 10.0 mi NE 19.6 mph 26.5 mph N/A   Overcast
6:53 PM 73.9 °F - 66.0 °F 76% 30.22 in 10.0 mi NE 16.1 mph 26.5 mph N/A   Overcast
7:53 PM 73.4 °F - 66.2 °F 78% 30.23 in 10.0 mi NE 12.7 mph 23.0 mph N/A   Mostly Cloudy
8:53 PM 73.9 °F - 66.9 °F 79% 30.24 in 10.0 mi NE 13.8 mph 20.7 mph N/A   Overcast
9:03 PM 73.4 °F - 68.0 °F 83% 30.23 in 10.0 mi ENE 15.0 mph 23.0 mph N/A   Overcast
9:15 PM 73.4 °F - 66.2 °F 78% 30.23 in 10.0 mi ENE 20.7 mph 28.8 mph N/A   Overcast
9:24 PM 73.4 °F - 66.2 °F 78% 30.24 in 10.0 mi ENE 17.3 mph 25.3 mph N/A   Overcast
9:33 PM 73.4 °F - 66.2 °F 78% 30.23 in 10.0 mi NE 16.1 mph 24.2 mph N/A   Overcast
9:53 PM 73.4 °F - 66.2 °F 78% 30.24 in 10.0 mi ENE 15.0 mph 20.7 mph N/A   Overcast
10:53 PM 73.0 °F - 66.9 °F 81% 30.24 in 10.0 mi NE 12.7 mph 20.7 mph N/A   Overcast
11:53 PM 73.4 °F - 66.2 °F 78% 30.23 in 10.0 mi NE 12.7 mph 19.6 mph N/A   Overcast